"Period start","avg(HW err(1)/warn(2) (#))","avg(Visibility (m))","avg(Weather code (#))","avg(Precip intensity (mm/h))","min(HW err(1)/warn(2) (#))","max(HW err(1)/warn(2) (#))","std(HW err(1)/warn(2) (#))","med(HW err(1)/warn(2) (#))","min(Visibility (m))","max(Visibility (m))","std(Visibility (m))","med(Visibility (m))","min(Weather code (#))","max(Weather code (#))","std(Weather code (#))","med(Weather code (#))","min(Precip intensity (mm/h))","max(Precip intensity (mm/h))","std(Precip intensity (mm/h))","med(Precip intensity (mm/h))"
2014-09-17 00:00:00,2,49217,0,0.00,2,2,0,2,46047,50000,1253,49726,0,0,0,0,0.00,0.00,0.00,0.00
2014-09-17 00:10:00,2,49975,0,0.00,2,2,0,2,49750,50000,75,50000,0,0,0,0,0.00,0.00,0.00,0.00
2014-09-17 00:20:00,2,49292,0,0.00,2,2,0,2,46322,50000,1109,49882,0,0,0,0,0.00,0.00,0.00,0.00
2014-09-17 00:30:00,2,39107,0,0.00,2,2,0,2,23330,50000,10239,43292,0,0,0,0,0.00,0.00,0.00,0.00
2014-09-17 00:40:00,2,42202,0,0.00,2,2,0,2,27552,50000,8247,44329,0,0,0,0,0.00,0.00,0.00,0.00
2014-09-17 00:50:00,2,43264,0,0.00,2,2,0,2,34497,49675,4274,43494,0,0,0,0,0.00,0.00,0.00,0.00
2014-09-17 01:00:00,2,27512,0,0.00,2,2,0,2,14219,46401,9561,25403,0,0,0,0,0.00,0.00,0.00,0.00
2014-09-17 01:10:00,2,35965,0,0.00,2,2,0,2,23253,44947,7104,37774,0,0,0,0,0.00,0.00,0.00,0.00
2014-09-17 01:20:00,2,47974,0,0.00,2,2,0,2,44303,50000,2260,49246,0,0,0,0,0.00,0.00,0.00,0.00
2014-09-17 01:30:00,2,48758,0,0.00,2,2,0,2,40677,50000,2848,50000,0,0,0,0,0.00,0.00,0.00,0.00
2014-09-17 01:40:00,2,47504,0,0.00,2,2,0,2,44289,50000,1836,47663,0,0,0,0,0.00,0.00,0.00,0.00
2014-09-17 01:50:00,2,31031,0,0.00,2,2,0,2,14148,50000,13178,27760,0,0,0,0,0.00,0.00,0.00,0.00
2014-09-17 02:00:00,2,36604,0,0.00,2,2,0,2,14598,50000,12661,39748,0,0,0,0,0.00,0.00,0.00,0.00
2014-09-17 02:10:00,2,49230,0,0.00,2,2,0,2,46035,50000,1293,50000,0,0,0,0,0.00,0.00,0.00,0.00
2014-09-17 02:20:00,2,47972,0,0.00,2,2,0,2,42540,50000,2582,49706,0,0,0,0,0.00,0.00,0.00,0.00
2014-09-17 02:30:00,2,30142,0,0.00,2,2,0,2,11766,47451,11217,32754,0,0,0,0,0.00,0.00,0.00,0.00
2014-09-17 02:40:00,2,42969,0,0.00,2,2,0,2,24791,50000,9070,49144,0,0,0,0,0.00,0.00,0.00,0.00
2014-09-17 02:50:00,2,39345,0,0.00,2,2,0,2,28735,47360,5769,41564,0,0,0,0,0.00,0.00,0.00,0.00
2014-09-17 03:00:00,2,41134,0,0.00,2,2,0,2,29323,50000,6229,41440,0,0,0,0,0.00,0.00,0.00,0.00
2014-09-17 03:10:00,2,45998,0,0.00,2,2,0,2,38025,50000,4406,47924,0,0,0,0,0.00,0.00,0.00,0.00
2014-09-17 03:20:00,2,43041,0,0.00,2,2,0,2,33220,49137,5106,44212,0,0,0,0,0.00,0.00,0.00,0.00
2014-09-17 03:30:00,2,34456,0,0.00,2,2,0,2,22980,50000,9438,33282,0,0,0,0,0.00,0.00,0.00,0.00
2014-09-17 03:40:00,2,47570,0,0.00,2,2,0,2,39815,50000,3786,50000,0,0,0,0,0.00,0.00,0.00,0.00
2014-09-17 03:50:00,2,38336,0,0.00,2,2,0,2,31954,46320,4384,39435,0,0,0,0,0.00,0.00,0.00,0.00
2014-09-17 04:00:00,2,48151,0,0.00,2,2,0,2,44818,50000,1934,48816,0,0,0,0,0.00,0.00,0.00,0.00
2014-09-17 04:10:00,2,47676,0,0.00,2,2,0,2,35530,50000,4642,50000,0,0,0,0,0.00,0.00,0.00,0.00
2014-09-17 04:20:00,2,49884,0,0.00,2,2,0,2,48837,50000,349,50000,0,0,0,0,0.00,0.00,0.00,0.00
2014-09-17 04:30:00,2,49742,0,0.00,2,2,0,2,48325,50000,544,50000,0,0,0,0,0.00,0.00,0.00,0.00
2014-09-17 04:40:00,2,48756,0,0.00,2,2,0,2,43496,50000,2060,50000,0,0,0,0,0.00,0.00,0.00,0.00
2014-09-17 04:50:00,2,49794,0,0.00,2,2,0,2,47945,50000,616,50000,0,0,0,0,0.00,0.00,0.00,0.00
2014-09-17 05:00:00,2,49823,0,0.00,2,2,0,2,48229,50000,531,50000,0,0,0,0,0.00,0.00,0.00,0.00
2014-09-17 05:10:00,2,50000,0,0.00,2,2,0,2,49996,50000,1,50000,0,0,0,0,0.00,0.00,0.00,0.00
2014-09-17 05:20:00,2,47720,0,0.00,2,2,0,2,41419,50000,2866,48998,0,0,0,0,0.00,0.00,0.00,0.00
2014-09-17 05:30:00,2,49913,0,0.00,2,2,0,2,49131,50000,261,50000,0,0,0,0,0.00,0.00,0.00,0.00
2014-09-17 05:40:00,2,49865,0,0.00,2,2,0,2,49314,50000,247,50000,0,0,0,0,0.00,0.00,0.00,0.00
2014-09-17 05:50:00,2,49012,0,0.00,2,2,0,2,45105,50000,1750,50000,0,0,0,0,0.00,0.00,0.00,0.00
2014-09-17 06:00:00,2,48398,0,0.00,2,2,0,2,43294,50000,2422,50000,0,0,0,0,0.00,0.00,0.00,0.00
2014-09-17 06:10:00,2,47574,0,0.00,2,2,0,2,41885,50000,2935,49168,0,0,0,0,0.00,0.00,0.00,0.00
2014-09-17 06:20:00,2,48871,0,0.00,2,2,0,2,41670,50000,2508,50000,0,0,0,0,0.00,0.00,0.00,0.00
2014-09-17 06:30:00,2,49325,0,0.00,2,2,0,2,45389,50000,1414,50000,0,0,0,0,0.00,0.00,0.00,0.00
2014-09-17 06:40:00,2,50000,0,0.00,2,2,0,2,50000,50000,0,50000,0,0,0,0,0.00,0.00,0.00,0.00
2014-09-17 06:50:00,2,49932,0,0.00,2,2,0,2,49322,50000,203,50000,0,0,0,0,0.00,0.00,0.00,0.00
2014-09-17 07:00:00,2,39437,0,0.00,2,2,0,2,23984,50000,10745,44262,0,0,0,0,0.00,0.00,0.00,0.00
2014-09-17 07:10:00,2,46962,0,0.00,2,2,0,2,39257,50000,3982,50000,0,0,0,0,0.00,0.00,0.00,0.00
2014-09-17 07:20:00,2,49875,0,0.00,2,2,0,2,48750,50000,375,50000,0,0,0,0,0.00,0.00,0.00,0.00
2014-09-17 07:30:00,2,49056,0,0.00,2,2,0,2,46042,50000,1261,49656,0,0,0,0,0.00,0.00,0.00,0.00
2014-09-17 07:40:00,2,48116,0,0.00,2,2,0,2,40423,50000,3108,49590,0,0,0,0,0.00,0.00,0.00,0.00
2014-09-17 07:50:00,2,49194,0,0.00,2,2,0,2,46510,50000,1375,50000,0,0,0,0,0.00,0.00,0.00,0.00
2014-09-17 08:00:00,2,47034,0,0.00,2,2,0,2,40874,50000,3684,48822,0,0,0,0,0.00,0.00,0.00,0.00
2014-09-17 08:10:00,2,49146,0,0.00,2,2,0,2,45467,50000,1567,50000,0,0,0,0,0.00,0.00,0.00,0.00
2014-09-17 08:20:00,2,49706,0,0.00,2,2,0,2,48565,50000,519,50000,0,0,0,0,0.00,0.00,0.00,0.00
2014-09-17 08:30:00,2,49854,0,0.00,2,2,0,2,49129,50000,299,50000,0,0,0,0,0.00,0.00,0.00,0.00
2014-09-17 08:40:00,2,49287,0,0.00,2,2,0,2,47724,50000,919,50000,0,0,0,0,0.00,0.00,0.00,0.00
2014-09-17 08:50:00,2,49801,0,0.00,2,2,0,2,48867,50000,403,50000,0,0,0,0,0.00,0.00,0.00,0.00
2014-09-17 09:00:00,2,48379,0,0.00,2,2,0,2,42840,50000,2240,49784,0,0,0,0,0.00,0.00,0.00,0.00
2014-09-17 09:10:00,2,49048,0,0.00,2,2,0,2,44751,50000,1641,50000,0,0,0,0,0.00,0.00,0.00,0.00
2014-09-17 09:20:00,2,45878,0,0.00,2,2,0,2,41453,50000,2649,44855,0,0,0,0,0.00,0.00,0.00,0.00
2014-09-17 09:30:00,2,49906,0,0.00,2,2,0,2,49347,50000,197,50000,0,0,0,0,0.00,0.00,0.00,0.00
2014-09-17 09:40:00,2,49359,0,0.00,2,2,0,2,47925,50000,783,49848,0,0,0,0,0.00,0.00,0.00,0.00
2014-09-17 09:50:00,2,48541,0,0.00,2,2,0,2,45465,50000,1548,48948,0,0,0,0,0.00,0.00,0.00,0.00
2014-09-17 10:00:00,2,50000,0,0.00,2,2,0,2,50000,50000,0,50000,0,0,0,0,0.00,0.00,0.00,0.00
2014-09-17 10:10:00,2,49897,0,0.00,2,2,0,2,49431,50000,180,50000,0,0,0,0,0.00,0.00,0.00,0.00
2014-09-17 10:20:00,2,50000,0,0.00,2,2,0,2,50000,50000,0,50000,0,0,0,0,0.00,0.00,0.00,0.00
2014-09-17 10:30:00,2,49629,0,0.00,2,2,0,2,48345,50000,559,50000,0,0,0,0,0.00,0.00,0.00,0.00
2014-09-17 10:40:00,2,49324,0,0.00,2,2,0,2,46684,50000,1194,50000,0,0,0,0,0.00,0.00,0.00,0.00
2014-09-17 10:50:00,2,49865,0,0.00,2,2,0,2,48649,50000,405,50000,0,0,0,0,0.00,0.00,0.00,0.00
2014-09-17 11:00:00,2,48846,0,0.00,2,2,0,2,46494,50000,1196,49196,0,0,0,0,0.00,0.00,0.00,0.00
2014-09-17 11:10:00,2,45670,0,0.00,2,2,0,2,40532,50000,3654,44696,0,0,0,0,0.00,0.00,0.00,0.00
2014-09-17 11:20:00,2,48665,0,0.00,2,2,0,2,44889,50000,1717,49615,0,0,0,0,0.00,0.00,0.00,0.00
2014-09-17 11:30:00,2,47946,0,0.00,2,2,0,2,42230,50000,2522,49340,0,0,0,0,0.00,0.00,0.00,0.00
2014-09-17 11:40:00,2,47703,0,0.00,2,2,0,2,42870,50000,1948,47818,0,0,0,0,0.00,0.00,0.00,0.00
2014-09-17 11:50:00,2,48866,0,0.00,2,2,0,2,47306,50000,1025,48695,0,0,0,0,0.00,0.00,0.00,0.00
2014-09-17 12:00:00,2,47556,0,0.00,2,2,0,2,44338,50000,1916,48312,0,0,0,0,0.00,0.00,0.00,0.00
2014-09-17 12:10:00,2,47995,0,0.00,2,2,0,2,40153,50000,3106,49398,0,0,0,0,0.00,0.00,0.00,0.00
2014-09-17 12:20:00,2,45951,0,0.00,2,2,0,2,36582,50000,4196,47462,0,0,0,0,0.00,0.00,0.00,0.00
2014-09-17 12:30:00,2,48571,0,0.00,2,2,0,2,41891,50000,2347,49567,0,0,0,0,0.00,0.00,0.00,0.00
2014-09-17 12:40:00,2,44985,0,0.00,2,2,0,2,39453,50000,3746,45073,0,0,0,0,0.00,0.00,0.00,0.00
2014-09-17 12:50:00,2,47716,0,0.00,2,2,0,2,45066,50000,1825,47566,0,0,0,0,0.00,0.00,0.00,0.00
2014-09-17 13:00:00,2,46257,0,0.00,2,2,0,2,40343,50000,3497,47410,0,0,0,0,0.00,0.00,0.00,0.00
2014-09-17 13:10:00,2,47283,0,0.00,2,2,0,2,43708,50000,2073,47964,0,0,0,0,0.00,0.00,0.00,0.00
2014-09-17 13:20:00,2,48454,0,0.00,2,2,0,2,43486,50000,1923,49010,0,0,0,0,0.00,0.00,0.00,0.00
2014-09-17 13:30:00,2,48780,0,0.00,2,2,0,2,45620,50000,1727,50000,0,0,0,0,0.00,0.00,0.00,0.00
2014-09-17 13:40:00,2,46070,0,0.00,2,2,0,2,39080,50000,4442,48112,0,0,0,0,0.00,0.00,0.00,0.00
2014-09-17 13:50:00,2,44630,0,0.00,2,2,0,2,39777,50000,2988,45094,0,0,0,0,0.00,0.00,0.00,0.00
2014-09-17 14:00:00,2,45160,0,0.00,2,2,0,2,37159,50000,4107,45816,0,0,0,0,0.00,0.00,0.00,0.00
2014-09-17 14:10:00,2,41190,0,0.00,2,2,0,2,37337,47721,3269,40526,0,0,0,0,0.00,0.00,0.00,0.00
2014-09-17 14:20:00,2,43477,0,0.00,2,2,0,2,37628,49909,4629,42542,0,0,0,0,0.00,0.00,0.00,0.00
2014-09-17 14:30:00,2,44952,0,0.00,2,2,0,2,35404,50000,4828,45733,0,0,0,0,0.00,0.00,0.00,0.00
2014-09-17 14:40:00,2,43046,0,0.00,2,2,0,2,37058,50000,4717,41554,0,0,0,0,0.00,0.00,0.00,0.00
2014-09-17 14:50:00,2,42995,0,0.00,2,2,0,2,40443,46975,2189,42742,0,0,0,0,0.00,0.00,0.00,0.00
2014-09-17 15:00:00,2,44492,0,0.00,2,2,0,2,37750,50000,4083,43512,0,0,0,0,0.00,0.00,0.00,0.00
2014-09-17 15:10:00,2,44015,0,0.00,2,2,0,2,39166,48635,3180,44584,0,0,0,0,0.00,0.00,0.00,0.00
2014-09-17 15:20:00,2,44316,0,0.00,2,2,0,2,41495,48142,2242,44406,0,0,0,0,0.00,0.00,0.00,0.00
2014-09-17 15:30:00,2,40876,0,0.00,2,2,0,2,36298,46061,3031,40130,0,0,0,0,0.00,0.00,0.00,0.00
2014-09-17 15:40:00,2,43746,0,0.00,2,2,0,2,38112,46896,2580,43732,0,0,0,0,0.00,0.00,0.00,0.00
2014-09-17 15:50:00,2,41357,0,0.00,2,2,0,2,35821,49023,3939,40752,0,0,0,0,0.00,0.00,0.00,0.00
2014-09-17 16:00:00,2,43800,0,0.00,2,2,0,2,38655,49132,3700,44718,0,0,0,0,0.00,0.00,0.00,0.00
2014-09-17 16:10:00,2,41818,0,0.00,2,2,0,2,32820,46849,4470,42294,0,0,0,0,0.00,0.00,0.00,0.00
2014-09-17 16:20:00,2,43346,0,0.00,2,2,0,2,34411,50000,5160,43589,0,0,0,0,0.00,0.00,0.00,0.00
2014-09-17 16:30:00,2,41556,0,0.00,2,2,0,2,35480,46813,3325,41636,0,0,0,0,0.00,0.00,0.00,0.00
2014-09-17 16:40:00,2,41622,0,0.00,2,2,0,2,36603,43791,2284,42299,0,0,0,0,0.00,0.00,0.00,0.00
2014-09-17 16:50:00,2,43579,0,0.00,2,2,0,2,36736,50000,3562,44300,0,0,0,0,0.00,0.00,0.00,0.00
2014-09-17 17:00:00,2,43510,0,0.00,2,2,0,2,39859,48135,2575,43702,0,0,0,0,0.00,0.00,0.00,0.00
2014-09-17 17:10:00,2,40958,0,0.00,2,2,0,2,32056,49066,5459,39982,0,0,0,0,0.00,0.00,0.00,0.00
2014-09-17 17:20:00,2,45918,0,0.00,2,2,0,2,42288,49441,2345,45774,0,0,0,0,0.00,0.00,0.00,0.00
2014-09-17 17:30:00,2,39019,0,0.00,2,2,0,2,32948,45798,3332,38588,0,0,0,0,0.00,0.00,0.00,0.00
2014-09-17 17:40:00,2,42052,0,0.00,2,2,0,2,36763,45357,2180,42437,0,0,0,0,0.00,0.00,0.00,0.00
2014-09-17 17:50:00,2,42985,0,0.00,2,2,0,2,36904,49444,3909,42780,0,0,0,0,0.00,0.00,0.00,0.00
2014-09-17 18:00:00,2,43656,0,0.00,2,2,0,2,38023,48337,3231,43479,0,0,0,0,0.00,0.00,0.00,0.00
2014-09-17 18:10:00,2,42997,0,0.00,2,2,0,2,37613,46917,2794,43204,0,0,0,0,0.00,0.00,0.00,0.00
2014-09-17 18:20:00,2,40239,0,0.00,2,2,0,2,33466,47177,4791,38082,0,0,0,0,0.00,0.00,0.00,0.00
2014-09-17 18:30:00,2,42730,0,0.00,2,2,0,2,40715,44990,1572,42610,0,0,0,0,0.00,0.00,0.00,0.00
2014-09-17 18:40:00,2,41045,0,0.00,2,2,0,2,34220,47380,4799,42244,0,0,0,0,0.00,0.00,0.00,0.00
2014-09-17 18:50:00,2,38382,0,0.00,2,2,0,2,35072,41816,2222,37620,0,0,0,0,0.00,0.00,0.00,0.00
2014-09-17 19:00:00,2,38842,0,0.00,2,2,0,2,29199,49852,7126,38325,0,0,0,0,0.00,0.00,0.00,0.00
2014-09-17 19:10:00,2,37971,0,0.00,2,2,0,2,32126,45203,4422,37233,0,0,0,0,0.00,0.00,0.00,0.00
2014-09-17 19:20:00,2,36203,0,0.00,2,2,0,2,31610,44394,3270,35858,0,0,0,0,0.00,0.00,0.00,0.00
2014-09-17 19:30:00,2,38331,0,0.00,2,2,0,2,34293,43696,3235,38598,0,0,0,0,0.00,0.00,0.00,0.00
2014-09-17 19:40:00,2,33451,0,0.00,2,2,0,2,30093,35761,1721,33619,0,0,0,0,0.00,0.00,0.00,0.00
2014-09-17 19:50:00,2,33260,0,0.00,2,2,0,2,29866,37416,2324,32914,0,0,0,0,0.00,0.00,0.00,0.00
2014-09-17 20:00:00,2,31575,0,0.00,2,2,0,2,29372,36467,2174,30842,0,0,0,0,0.00,0.00,0.00,0.00
2014-09-17 20:10:00,2,28449,0,0.00,2,2,0,2,25339,31576,2044,28806,0,0,0,0,0.00,0.00,0.00,0.00
2014-09-17 20:20:00,2,28396,0,0.00,2,2,0,2,26091,30647,1354,28570,0,0,0,0,0.00,0.00,0.00,0.00
2014-09-17 20:30:00,2,29937,0,0.00,2,2,0,2,28366,31891,1090,29988,0,0,0,0,0.00,0.00,0.00,0.00
2014-09-17 20:40:00,2,30238,0,0.00,2,2,0,2,25209,33878,2384,30376,0,0,0,0,0.00,0.00,0.00,0.00
2014-09-17 20:50:00,2,29671,0,0.00,2,2,0,2,26923,33227,1874,29856,0,0,0,0,0.00,0.00,0.00,0.00
2014-09-17 21:00:00,2,27894,0,0.00,2,2,0,2,23932,34064,2872,28254,0,0,0,0,0.00,0.00,0.00,0.00
2014-09-17 21:10:00,2,26020,0,0.00,2,2,0,2,23666,28274,1424,25925,0,0,0,0,0.00,0.00,0.00,0.00
2014-09-17 21:20:00,2,26796,0,0.00,2,2,0,2,25136,29146,1277,26328,0,0,0,0,0.00,0.00,0.00,0.00
2014-09-17 21:30:00,2,23675,0,0.00,2,2,0,2,19412,29759,2758,23829,0,0,0,0,0.00,0.00,0.00,0.00
2014-09-17 21:40:00,2,16925,0,0.00,2,2,0,2,14594,20624,1724,16804,0,0,0,0,0.00,0.00,0.00,0.00
2014-09-17 21:50:00,2,17301,0,0.00,2,2,0,2,16394,18666,783,17356,0,0,0,0,0.00,0.00,0.00,0.00
2014-09-17 22:00:00,2,15108,0,0.00,2,2,0,2,13711,16314,813,15200,0,0,0,0,0.00,0.00,0.00,0.00
2014-09-17 22:10:00,2,15518,0,0.00,2,2,0,2,14536,16529,542,15410,0,0,0,0,0.00,0.00,0.00,0.00
2014-09-17 22:20:00,2,15528,0,0.00,2,2,0,2,14008,17124,862,15598,0,0,0,0,0.00,0.00,0.00,0.00
2014-09-17 22:30:00,2,15155,37,0.00,2,2,0,2,14200,16305,705,15175,0,41,12,41,0.00,0.00,0.00,0.00
2014-09-17 22:40:00,2,15379,73,0.01,2,2,0,2,12908,17468,1485,15663,71,77,3,71,0.00,0.05,0.02,0.00
2014-09-17 22:50:00,2,12658,72,0.03,2,2,0,2,10979,15524,1206,12574,71,77,2,71,0.00,0.15,0.05,0.00
2014-09-17 23:00:00,2,13773,75,0.02,2,2,0,2,11577,16984,1476,13060,71,77,3,77,0.00,0.05,0.02,0.00
2014-09-17 23:10:00,2,15041,74,0.01,2,2,0,2,12844,19838,1904,14941,71,77,3,74,0.00,0.05,0.02,0.00
2014-09-17 23:20:00,2,17388,12,0.00,2,2,0,2,12875,21033,2680,17114,0,77,25,0,0.00,0.00,0.00,0.00
2014-09-17 23:30:00,2,13543,41,0.00,2,2,0,2,11732,14843,1102,13668,41,41,0,41,0.00,0.00,0.00,0.00
2014-09-17 23:40:00,2,15556,41,0.00,2,2,0,2,11593,19535,2236,15495,41,41,0,41,0.00,0.00,0.00,0.00
2014-09-17 23:50:00,2,17512,41,0.00,2,2,0,2,16023,18906,976,17524,41,41,0,41,0.00,0.00,0.00,0.00
